This demonstration page uses our WeatherBlox Daily Observations layout. Learn more.

Left ArrowRight Arrow

Hourly Observations for July 30, 2016

Temp ( °F °C ) Dew Point ( °F °C ) Humidity (%) Winds ( mph kmh ) Pressure ( in mb ) Visibility ( mi km ) Precip ( " mm )
12:51 am 00:51 Clear 79 26.1 57 13.9 47 47 W 7 11 29.78 1009 10 16 0.00 0.00
1:51 am 01:51 Clear 77 25 58 14.4 52 52 NW 5 7 29.76 1008 10 16 0.00 0.00
2:51 am 02:51 Clear 75 23.9 58 14.4 55 55 ESE 5 7 29.77 1008 10 16 0.00 0.00
3:51 am 03:51 Clear 74 23.3 58 14.4 57 57 WSW 3 6 29.76 1008 10 16 0.00 0.00
4:51 am 04:51 Clear 73 22.8 58 14.4 59 59 NNW 3 6 29.81 1010 10 16 0.00 0.00
5:51 am 05:51 Sunny 72 22.2 59 15 64 64 Calm 29.84 1010 10 16 0.00 0.00
6:51 am 06:51 Sunny 76 24.4 59 15 56 56 Calm 29.84 1011 10 16 0.00 0.00
7:51 am 07:51 Sunny 80 26.7 58 14.4 47 47 SE 3 6 29.84 1011 10 16 0.00 0.00
8:51 am 08:51 Sunny 82 27.8 57 13.9 42 42 VRB 5 7 29.84 1011 10 16 0.00 0.00
9:51 am 09:51 Sunny 88 31.1 55 12.8 33 33 VRB 5 7 29.82 1010 10 16 0.00 0.00
10:51 am 10:51 Sunny 91 32.8 53 11.7 27 27 Calm 29.81 1010 10 16 0.00 0.00
11:51 am 11:51 Sunny 93 33.9 54 12.2 27 27 W 8 13 29.78 1008 10 16 0.00 0.00
12:51 pm 12:51 Sunny 94 34.4 52 11.1 24 24 Calm 29.76 1008 10 16 0.00 0.00
1:51 pm 13:51 Sunny 97 36.1 51 10.6 21 21 S 8 13 29.73 1007 10 16 0.00 0.00
2:51 pm 14:51 Sunny 97 36.1 52 11.1 22 22 VRB 5 7 29.71 1006 10 16 0.00 0.00
3:51 pm 15:51 Sunny 99 37.2 50 10 19 19 S 5 7 29.68 1005 10 16 0.00 0.00
4:51 pm 16:51 Sunny 99 37.2 51 10.6 20 20 E 13 20 29.67 1005 10 16 0.00 0.00
5:51 pm 17:51 Sunny 99 37.2 47 8.3 17 17 E 7 11 29.66 1005 10 16 0.00 0.00
6:22 pm 18:22 Sunny 93 33.9 52 11.1 25 25 SSW 14 22 29.62 1003 10 16 0.00 0.00
6:51 pm 18:51 Sunny 93 33.9 52 11.1 25 25 S 6 9 29.68 1005 10 16 0.00 0.00
7:25 pm 19:25 Mostly Clear 91 32.8 54 12.2 28 28 N 14 22 29.65 1004 10 16 0.00 0.00
7:51 pm 19:51 Clear 89 31.7 53 11.7 29 29 NW 10 17 29.73 1007 10 16 0.00 0.00
8:51 pm 20:51 Clear 80 26.7 57 13.9 45 45 WNW 22 35 29.77 1008 10 16 0.00 0.00
9:51 pm 21:51 Clear 78 25.6 60 15.6 54 54 WNW 20 31 29.78 1009 10 16 0.00 0.00
10:51 pm 22:51 Clear 80 26.7 58 14.4 47 47 NW 17 28 29.77 1008 10 16 0.00 0.00
11:51 pm 23:51 Clear 80 26.7 56 13.3 44 44 NW 13 20 29.77 1008 10 16 0.00 0.00

Powered by AerisWeather